| time (UTC) | temp F | wind direction | speed knots | gust knots | rain 1hr in | rain 24hr in | rain mn in | humidity % | barometer mb |
| 20260510205030 | 68 | 45 | 4.3 | 7.8 | 0.00 | 0.00 | 0.00 | 38 | 1031.3 |
| 20260510204531 | 68 | 105 | 0.0 | 4.3 | 0.00 | 0.00 | 0.00 | 37 | 1031.3 |
| 20260510204034 | 68 | 36 | 0.0 | 6.1 | 0.00 | 0.00 | 0.00 | 40 | 1031.3 |
| 20260510203530 | 68 | 80 | 0.9 | 6.1 | 0.00 | 0.00 | 0.00 | 39 | 1031.3 |
| 20260510203030 | 68 | 103 | 0.0 | 4.3 | 0.00 | 0.00 | 0.00 | 41 | 1031.3 |
| 20260510202529 | 68 | 79 | 0.0 | 6.1 | 0.00 | 0.00 | 0.00 | 38 | 1031.3 |
| 20260510202031 | 68 | 144 | 1.7 | 6.1 | 0.00 | 0.00 | 0.00 | 38 | 1031.3 |
| 20260510201529 | 68 | 26 | 2.6 | 5.2 | 0.00 | 0.00 | 0.00 | 38 | 1031.3 |
| 20260510201029 | 68 | 51 | 1.7 | 6.1 | 0.00 | 0.00 | 0.00 | 37 | 1031.3 |
| 20260510200529 | 68 | 96 | 0.9 | 6.1 | 0.00 | 0.00 | 0.00 | 39 | 1031.3 |
| 20260510200029 | 68 | 63 | 1.7 | 6.1 | 0.00 | 0.00 | 0.00 | 40 | 1031.3 |
| 20260510195528 | 68 | 103 | 0.9 | 5.2 | 0.00 | 0.00 | 0.00 | 37 | 1031.3 |
| 20260510195029 | 69 | 102 | 0.9 | 5.2 | 0.00 | 0.00 | 0.00 | 37 | 1031.3 |
| 20260510194530 | 68 | 39 | 0.9 | 5.2 | 0.00 | 0.00 | 0.00 | 38 | 1031.3 |
| 20260510194031 | 68 | 89 | 0.9 | 5.2 | 0.00 | 0.00 | 0.00 | 38 | 1031.3 |
| 20260510193528 | 69 | 32 | 0.9 | 5.2 | 0.00 | 0.00 | 0.00 | 38 | 1031.3 |
| 20260510193027 | 68 | 62 | 0.9 | 7.8 | 0.00 | 0.00 | 0.00 | 38 | 1031.3 |
| 20260510192528 | 68 | 95 | 3.5 | 7.8 | 0.00 | 0.00 | 0.00 | 40 | 1031.3 |
| 20260510192027 | 68 | 96 | 0.9 | 5.2 | 0.00 | 0.00 | 0.00 | 43 | 1031.3 |
| 20260510191528 | 68 | 103 | 0.0 | 10.4 | 0.00 | 0.00 | 0.00 | 42 | 1031.3 |
| 20260510191027 | 67 | 82 | 2.6 | 10.4 | 0.00 | 0.00 | 0.00 | 40 | 1031.3 |
| 20260510190527 | 68 | 49 | 3.5 | 9.6 | 0.00 | 0.00 | 0.00 | 40 | 1031.3 |
| 20260510190041 | 68 | 93 | 1.7 | 6.1 | 0.00 | 0.00 | 0.00 | 41 | 1031.3 |
| 20260510185526 | 68 | 146 | 0.9 | 7.0 | 0.00 | 0.00 | 0.00 | 40 | 1031.3 |
| 20260510185025 | 67 | 80 | 0.9 | 11.3 | 0.00 | 0.00 | 0.00 | 39 | 1031.3 |
| 20260510184525 | 67 | 92 | 2.6 | 11.3 | 0.00 | 0.00 | 0.00 | 40 | 1031.3 |
| 20260510184029 | 67 | 67 | 0.9 | 11.3 | 0.00 | 0.00 | 0.00 | 37 | 1031.3 |
| 20260510183525 | 67 | 84 | 2.6 | 12.2 | 0.00 | 0.00 | 0.00 | 37 | 1031.3 |
| 20260510183026 | 68 | 55 | 1.7 | 12.2 | 0.00 | 0.00 | 0.00 | 37 | 1031.3 |
| 20260510182524 | 68 | 84 | 0.9 | 7.8 | 0.00 | 0.00 | 0.00 | 43 | 1031.3 |
| 20260510182027 | 67 | 53 | 1.7 | 7.8 | 0.00 | 0.00 | 0.00 | 42 | 1031.3 |
| 20260510181531 | 67 | 79 | 1.7 | 5.2 | 0.00 | 0.00 | 0.00 | 38 | 1031.3 |
| 20260510181026 | 67 | 95 | 0.0 | 6.1 | 0.00 | 0.00 | 0.00 | 42 | 1031.3 |
| 20260510180525 | 67 | 61 | 1.7 | 7.8 | 0.00 | 0.00 | 0.00 | 42 | 1031.3 |
| 20260510180023 | 66 | 34 | 1.7 | 9.6 | 0.00 | 0.00 | 0.00 | 39 | 1031.3 |
| 20260510175523 | 66 | 95 | 2.6 | 7.8 | 0.00 | 0.00 | 0.00 | 40 | 1031.3 |
| 20260510175023 | 66 | 87 | 2.6 | 12.2 | 0.00 | 0.00 | 0.00 | 40 | 1031.3 |
| 20260510174523 | 66 | 104 | 5.2 | 12.2 | 0.00 | 0.00 | 0.00 | 40 | 1031.3 |
| 20260510174025 | 66 | 136 | 2.6 | 9.6 | 0.00 | 0.00 | 0.00 | 42 | 1031.3 |
| 20260510173523 | 66 | 158 | 3.5 | 7.0 | 0.00 | 0.00 | 0.00 | 40 | 1031.3 |
| 20260510173023 | 66 | 81 | 2.6 | 7.0 | 0.00 | 0.00 | 0.00 | 42 | 1031.3 |
| 20260510172523 | 65 | 87 | 2.6 | 8.7 | 0.00 | 0.00 | 0.00 | 41 | 1031.3 |
| 20260510172025 | 65 | 129 | 4.3 | 8.7 | 0.00 | 0.00 | 0.00 | 40 | 1031.3 |
| 20260510171522 | 65 | 146 | 4.3 | 8.7 | 0.00 | 0.00 | 0.00 | 40 | 1031.3 |
| 20260510171023 | 65 | 94 | 4.3 | 8.7 | 0.00 | 0.00 | 0.00 | 40 | 1031.3 |
| 20260510170522 | 66 | 94 | 1.7 | 6.1 | 0.00 | 0.00 | 0.00 | 37 | 1031.3 |
| 20260510170022 | 65 | 142 | 0.9 | 8.7 | 0.00 | 0.00 | 0.00 | 42 | 1031.3 |
| 20260510165522 | 65 | 88 | 2.6 | 8.7 | 0.00 | 0.00 | 0.00 | 39 | 1031.3 |
| 20260510165026 | 65 | 93 | 2.6 | 9.6 | 0.00 | 0.00 | 0.00 | 40 | 1031.3 |
| 20260510164522 | 65 | 93 | 1.7 | 11.3 | 0.00 | 0.00 | 0.00 | 40 | 1031.3 |
| 20260510164021 | 65 | 60 | 3.5 | 11.3 | 0.00 | 0.00 | 0.00 | 40 | 1031.3 |
| 20260510163521 | 65 | 120 | 4.3 | 8.7 | 0.00 | 0.00 | 0.00 | 44 | 1031.3 |
| 20260510163020 | 64 | 93 | 2.6 | 7.8 | 0.00 | 0.00 | 0.00 | 44 | 1031.3 |
| 20260510162521 | 64 | 113 | 2.6 | 7.0 | 0.00 | 0.00 | 0.00 | 45 | 1031.3 |
| 20260510162021 | 64 | 89 | 3.5 | 12.2 | 0.00 | 0.00 | 0.00 | 46 | 1031.3 |
| 20260510161519 | 64 | 136 | 3.5 | 12.2 | 0.00 | 0.00 | 0.00 | 45 | 1031.3 |
| 20260510161020 | 64 | 113 | 3.5 | 10.4 | 0.00 | 0.00 | 0.00 | 45 | 1031.3 |
| 20260510160520 | 64 | 116 | 3.5 | 8.7 | 0.00 | 0.00 | 0.00 | 45 | 1031.3 |
| 20260510160018 | 64 | 111 | 2.6 | 8.7 | 0.00 | 0.00 | 0.00 | 48 | 1031.3 |
| 20260510155523 | 63 | 100 | 3.5 | 8.7 | 0.00 | 0.00 | 0.00 | 46 | 1031.3 |
| 20260510155018 | 63 | 113 | 4.3 | 8.7 | 0.00 | 0.00 | 0.00 | 46 | 1031.3 |
| 20260510154518 | 63 | 133 | 4.3 | 8.7 | 0.00 | 0.00 | 0.00 | 45 | 1031.3 |
| 20260510154018 | 63 | 62 | 1.7 | 7.8 | 0.00 | 0.00 | 0.00 | 50 | 1031.3 |
| 20260510153518 | 63 | 96 | 0.9 | 7.0 | 0.00 | 0.00 | 0.00 | 49 | 1031.3 |
| 20260510153035 | 63 | 113 | 1.7 | 7.0 | 0.00 | 0.00 | 0.00 | 49 | 1031.3 |
| 20260510152517 | 63 | 124 | 1.7 | 7.8 | 0.00 | 0.00 | 0.00 | 51 | 1031.3 |
| 20260510152019 | 62 | 92 | 2.6 | 7.8 | 0.00 | 0.00 | 0.00 | 50 | 1031.3 |
| 20260510151517 | 62 | 149 | 1.7 | 6.1 | 0.00 | 0.00 | 0.00 | 49 | 1031.3 |
| 20260510151017 | 62 | 80 | 1.7 | 7.8 | 0.00 | 0.00 | 0.00 | 51 | 1031.3 |
| 20260510150525 | 62 | 136 | 2.6 | 7.8 | 0.00 | 0.00 | 0.00 | 48 | 1031.3 |
| 20260510150017 | 61 | 107 | 3.5 | 7.0 | 0.00 | 0.00 | 0.00 | 49 | 1031.3 |
| 20260510145516 | 61 | 106 | 0.9 | 6.1 | 0.00 | 0.00 | 0.00 | 51 | 1031.3 |
| 20260510145016 | 61 | 114 | 1.7 | 7.8 | 0.00 | 0.00 | 0.00 | 51 | 1031.3 |
| 20260510144536 | 61 | 105 | 2.6 | 9.6 | 0.00 | 0.00 | 0.00 | 49 | 1031.3 |
| 20260510144015 | 61 | 107 | 4.3 | 9.6 | 0.00 | 0.00 | 0.00 | 50 | 1031.3 |
| 20260510143518 | 62 | 74 | 2.6 | 7.8 | 0.00 | 0.00 | 0.00 | 52 | 1031.3 |
| 20260510143014 | 61 | 75 | 1.7 | 8.7 | 0.00 | 0.00 | 0.00 | 54 | 1031.3 |
| 20260510142525 | 61 | 150 | 4.3 | 8.7 | 0.00 | 0.00 | 0.00 | 54 | 1031.3 |
| 20260510142014 | 61 | 105 | 3.5 | 7.8 | 0.00 | 0.00 | 0.00 | 55 | 1031.3 |
| 20260510141514 | 61 | 116 | 2.6 | 7.8 | 0.00 | 0.00 | 0.00 | 56 | 1031.3 |
| 20260510141014 | 61 | 85 | 1.7 | 7.8 | 0.00 | 0.00 | 0.00 | 57 | 1031.3 |
| 20260510140512 | 61 | 86 | 0.9 | 7.8 | 0.00 | 0.00 | 0.00 | 61 | 1031.3 |
| 20260510140012 | 61 | 118 | 2.6 | 5.2 | 0.00 | 0.00 | 0.00 | 60 | 1031.3 |
| 20260510135512 | 60 | 143 | 0.0 | 6.1 | 0.00 | 0.00 | 0.00 | 63 | 1031.3 |
| 20260510135013 | 60 | 137 | 0.9 | 9.6 | 0.00 | 0.00 | 0.00 | 63 | 1031.3 |
| 20260510134512 | 60 | 129 | 2.6 | 9.6 | 0.00 | 0.00 | 0.00 | 63 | 1031.3 |
| 20260510134017 | 60 | 105 | 2.6 | 9.6 | 0.00 | 0.00 | 0.00 | 64 | 1031.3 |
| 20260510133511 | 59 | 113 | 1.7 | 9.6 | 0.00 | 0.00 | 0.00 | 63 | 1031.3 |
| 20260510133010 | 59 | 78 | 1.7 | 7.0 | 0.00 | 0.00 | 0.00 | 64 | 1031.3 |
| 20260510132510 | 59 | 91 | 1.7 | 4.3 | 0.00 | 0.00 | 0.00 | 66 | 1031.3 |
| 20260510132010 | 59 | 105 | 0.9 | 7.8 | 0.00 | 0.00 | 0.00 | 67 | 1031.3 |
| 20260510131510 | 58 | 129 | 0.0 | 3.5 | 0.00 | 0.00 | 0.00 | 70 | 1031.3 |
| 20260510131013 | 58 | 140 | 0.9 | 7.0 | 0.00 | 0.00 | 0.00 | 69 | 1031.3 |
| 20260510130510 | 58 | 128 | 1.7 | 7.0 | 0.00 | 0.00 | 0.00 | 69 | 1031.3 |
| 20260510130010 | 58 | 101 | 0.9 | 5.2 | 0.00 | 0.00 | 0.00 | 71 | 1031.3 |
| 20260510125509 | 58 | 126 | 0.9 | 7.0 | 0.00 | 0.00 | 0.00 | 71 | 1031.3 |
| 20260510125008 | 58 | 105 | 1.7 | 7.0 | 0.00 | 0.00 | 0.00 | 71 | 1031.3 |
| 20260510124512 | 58 | 94 | 0.0 | 4.3 | 0.00 | 0.00 | 0.00 | 71 | 1031.3 |
| 20260510124012 | 58 | 96 | 0.9 | 4.3 | 0.00 | 0.00 | 0.00 | 71 | 1031.3 |
| 20260510123510 | 58 | 91 | 1.7 | 7.8 | 0.00 | 0.00 | 0.00 | 72 | 1031.3 |
| 20260510123009 | 58 | 139 | 1.7 | 7.8 | 0.00 | 0.00 | 0.00 | 72 | 1031.3 |
| 20260510122506 | 58 | 75 | 0.9 | 4.3 | 0.00 | 0.00 | 0.00 | 75 | 1031.3 |
| 20260510122006 | 58 | 82 | 0.9 | 4.3 | 0.00 | 0.00 | 0.00 | 76 | 1031.3 |
| 20260510121506 | 58 | 91 | 0.9 | 4.3 | 0.00 | 0.00 | 0.00 | 78 | 1031.3 |
| 20260510121006 | 58 | 99 | 0.0 | 2.6 | 0.00 | 0.00 | 0.00 | 79 | 1031.3 |
| 20260510120506 | 59 | 91 | 0.0 | 6.1 | 0.00 | 0.00 | 0.00 | 79 | 1031.3 |
| 20260510120012 | 59 | 76 | 0.9 | 6.1 | 0.00 | 0.00 | 0.00 | 81 | 1031.3 |
| 20260510115506 | 59 | 50 | 0.9 | 6.1 | 0.00 | 0.00 | 0.00 | 81 | 1031.3 |
| 20260510115004 | 59 | 113 | 0.0 | 6.1 | 0.00 | 0.00 | 0.00 | 81 | 1031.3 |
| 20260510114504 | 59 | 84 | 0.0 | 6.1 | 0.00 | 0.00 | 0.00 | 82 | 1031.3 |
| 20260510114004 | 59 | 90 | 0.9 | 6.1 | 0.00 | 0.00 | 0.00 | 83 | 1031.3 |
| 20260510113504 | 59 | 120 | 0.9 | 6.1 | 0.00 | 0.00 | 0.00 | 83 | 1031.3 |
| 20260510113003 | 59 | 37 | 0.0 | 6.1 | 0.00 | 0.00 | 0.00 | 83 | 1031.3 |
| 20260510112503 | 59 | 104 | 0.9 | 5.2 | 0.00 | 0.00 | 0.00 | 84 | 1031.3 |
| 20260510112003 | 59 | 102 | 0.0 | 2.6 | 0.00 | 0.00 | 0.00 | 84 | 1031.3 |
| 20260510111502 | 59 | 85 | 0.0 | 6.1 | 0.00 | 0.00 | 0.00 | 84 | 1031.3 |
| 20260510111006 | 59 | 81 | 0.9 | 6.1 | 0.00 | 0.00 | 0.00 | 84 | 1031.3 |
| 20260510110502 | 59 | 65 | 2.6 | 6.1 | 0.00 | 0.00 | 0.00 | 84 | 1031.3 |
| 20260510110003 | 59 | 46 | 0.0 | 1.7 | 0.00 | 0.00 | 0.00 | 84 | 1031.3 |
| 20260510105601 | 59 | 55 | 0.0 | 1.7 | 0.00 | 0.00 | 0.00 | 84 | 1031.3 |
| 20260510105100 | 60 | 92 | 0.0 | 1.7 | 0.00 | 0.00 | 0.00 | 84 | 1031.3 |
| 20260510104611 | 60 | 144 | 0.0 | 1.7 | 0.00 | 0.00 | 0.00 | 84 | 1031.3 |
| 20260510104059 | 60 | 120 | 0.0 | 2.6 | 0.00 | 0.00 | 0.00 | 84 | 1031.3 |
| 20260510103559 | 60 | 104 | 0.0 | 2.6 | 0.00 | 0.00 | 0.00 | 84 | 1031.3 |
| 20260510103059 | 60 | 113 | 0.0 | 2.6 | 0.00 | 0.00 | 0.00 | 84 | 1031.3 |
| 20260510102559 | 60 | 102 | 0.0 | 2.6 | 0.00 | 0.00 | 0.00 | 84 | 1031.3 |
| 20260510102059 | 60 | 102 | 0.0 | 1.7 | 0.00 | 0.00 | 0.00 | 84 | 1031.3 |
| 20260510101604 | 60 | 108 | 0.0 | 1.7 | 0.00 | 0.00 | 0.00 | 84 | 1031.3 |
| 20260510101058 | 60 | 108 | 0.0 | 1.7 | 0.00 | 0.00 | 0.00 | 84 | 1031.3 |
| 20260510100558 | 60 | 91 | 0.0 | 1.7 | 0.00 | 0.00 | 0.00 | 84 | 1031.3 |
| 20260510100058 | 60 | 120 | 0.0 | 1.7 | 0.00 | 0.00 | 0.00 | 84 | 1031.3 |
| 20260510095557 | 60 | 117 | 0.0 | 1.7 | 0.00 | 0.00 | 0.00 | 84 | 1031.3 |
| 20260510095057 | 60 | 116 | 0.0 | 2.6 | 0.00 | 0.00 | 0.00 | 83 | 1031.3 |
| 20260510094612 | 61 | 108 | 0.0 | 2.6 | 0.00 | 0.00 | 0.00 | 82 | 1031.3 |
| 20260510094056 | 61 | 105 | 0.0 | 4.3 | 0.00 | 0.00 | 0.00 | 81 | 1031.3 |
| 20260510093556 | 61 | 120 | 0.0 | 7.8 | 0.00 | 0.00 | 0.00 | 81 | 1031.3 |
| 20260510093057 | 61 | 90 | 2.6 | 7.8 | 0.00 | 0.00 | 0.00 | 81 | 1031.3 |
| 20260510092559 | 61 | 118 | 0.0 | 4.3 | 0.00 | 0.00 | 0.00 | 81 | 1031.3 |
| 20260510092056 | 61 | 116 | 0.0 | 4.3 | 0.00 | 0.00 | 0.00 | 81 | 1031.3 |
| 20260510091557 | 60 | 112 | 0.0 | 4.3 | 0.00 | 0.00 | 0.00 | 82 | 1031.3 |
| 20260510091056 | 60 | 115 | 0.0 | 5.2 | 0.00 | 0.00 | 0.00 | 83 | 1031.3 |
| 20260510090556 | 60 | 75 | 0.0 | 3.5 | 0.00 | 0.00 | 0.00 | 83 | 1031.3 |
| 20260510090055 | 60 | 55 | 0.0 | 3.5 | 0.00 | 0.00 | 0.00 | 83 | 1031.3 |
| 20260510085554 | 60 | 73 | 0.0 | 3.5 | 0.00 | 0.00 | 0.00 | 82 | 1031.3 |
| 20260510085053 | 60 | 40 | 0.0 | 2.6 | 0.00 | 0.00 | 0.00 | 81 | 1031.3 |
| 20260510084601 | 61 | 47 | 0.0 | 2.6 | 0.00 | 0.00 | 0.00 | 80 | 1031.3 |
| 20260510084053 | 61 | 51 | 0.0 | 0.0 | 0.00 | 0.00 | 0.00 | 80 | 1031.3 |
| 20260510083552 | 61 | 38 | 0.0 | 0.0 | 0.00 | 0.00 | 0.00 | 80 | 1031.3 |
| 20260510083113 | 61 | 39 | 0.0 | 1.7 | 0.00 | 0.00 | 0.00 | 79 | 1031.3 |
| 20260510082551 | 61 | 30 | 0.0 | 1.7 | 0.00 | 0.00 | 0.00 | 79 | 1031.3 |
| 20260510082052 | 61 | 51 | 0.0 | 1.7 | 0.00 | 0.00 | 0.00 | 78 | 1031.3 |
| 20260510081610 | 61 | 47 | 0.9 | 1.7 | 0.00 | 0.00 | 0.00 | 78 | 1031.3 |
| 20260510081051 | 62 | 49 | 0.9 | 1.7 | 0.00 | 0.00 | 0.00 | 77 | 1031.3 |
| 20260510080549 | 62 | 97 | 0.0 | 0.0 | 0.00 | 0.00 | 0.00 | 77 | 1031.3 |
| 20260510080048 | 62 | 127 | 0.0 | 2.6 | 0.00 | 0.00 | 0.00 | 76 | 1031.3 |
| 20260510075548 | 62 | 127 | 0.0 | 2.6 | 0.00 | 0.00 | 0.00 | 76 | 1031.3 |
| 20260510075048 | 62 | 134 | 0.0 | 3.5 | 0.00 | 0.00 | 0.00 | 76 | 1031.3 |
| 20260510074551 | 62 | 133 | 0.9 | 3.5 | 0.00 | 0.00 | 0.00 | 76 | 1031.3 |
| 20260510074051 | 62 | 132 | 0.0 | 1.7 | 0.00 | 0.00 | 0.00 | 75 | 1031.3 |
| 20260510073547 | 62 | 53 | 0.0 | 4.3 | 0.00 | 0.00 | 0.00 | 75 | 1031.3 |
| 20260510073051 | 62 | 48 | 0.9 | 4.3 | 0.00 | 0.00 | 0.00 | 75 | 1031.3 |
| 20260510072547 | 62 | 49 | 0.9 | 2.6 | 0.00 | 0.00 | 0.00 | 74 | 1031.3 |
| 20260510072047 | 62 | 51 | 0.0 | 6.1 | 0.00 | 0.00 | 0.00 | 74 | 1031.3 |
| 20260510071547 | 62 | 47 | 2.6 | 6.1 | 0.00 | 0.00 | 0.00 | 74 | 1031.3 |
| 20260510071048 | 62 | 36 | 1.7 | 4.3 | 0.00 | 0.00 | 0.00 | 73 | 1031.3 |
| 20260510070544 | 63 | 31 | 2.6 | 3.5 | 0.00 | 0.00 | 0.00 | 71 | 1031.3 |
| 20260510070043 | 64 | 14 | 2.6 | 4.3 | 0.00 | 0.00 | 0.00 | 71 | 1031.3 |
| 20260510065546 | 64 | 36 | 2.6 | 4.3 | 0.00 | 0.00 | 0.00 | 70 | 1031.3 |
| 20260510065042 | 64 | 40 | 2.6 | 4.3 | 0.00 | 0.00 | 0.00 | 69 | 1031.3 |
| 20260510064544 | 64 | 41 | 2.6 | 5.2 | 0.00 | 0.00 | 0.00 | 69 | 1031.3 |
| 20260510064042 | 64 | 47 | 3.5 | 5.2 | 0.00 | 0.00 | 0.00 | 69 | 1031.3 |
| 20260510063542 | 64 | 44 | 1.7 | 4.3 | 0.00 | 0.00 | 0.00 | 68 | 1031.3 |
| 20260510063042 | 64 | 24 | 0.9 | 4.3 | 0.00 | 0.00 | 0.00 | 67 | 1031.3 |
| 20260510062542 | 64 | 47 | 2.6 | 4.3 | 0.00 | 0.00 | 0.00 | 67 | 1031.3 |
| 20260510062039 | 64 | 28 | 0.0 | 1.7 | 0.00 | 0.00 | 0.00 | 66 | 1031.3 |
| 20260510061549 | 65 | 281 | 0.0 | 0.0 | 0.00 | 0.00 | 0.00 | 65 | 1031.3 |
| 20260510061038 | 65 | 281 | 0.0 | 0.0 | 0.00 | 0.00 | 0.00 | 64 | 1031.3 |
| 20260510060537 | 65 | 281 | 0.0 | 0.0 | 0.00 | 0.00 | 0.00 | 64 | 1031.3 |
| 20260510060041 | 65 | 281 | 0.0 | 0.0 | 0.00 | 0.00 | 0.00 | 63 | 1031.3 |
| 20260510055534 | 66 | 281 | 0.0 | 0.0 | 0.00 | 0.01 | 0.00 | 61 | 1031.3 |
| 20260510055034 | 66 | 281 | 0.0 | 0.0 | 0.00 | 0.01 | 0.00 | 61 | 1031.3 |
| 20260510054533 | 66 | 281 | 0.0 | 0.9 | 0.00 | 0.01 | 0.00 | 61 | 1031.3 |
| 20260510054034 | 67 | 281 | 0.0 | 0.9 | 0.00 | 0.01 | 0.00 | 60 | 1031.3 |
| 20260510053532 | 67 | 1 | 0.0 | 0.0 | 0.00 | 0.01 | 0.00 | 59 | 1031.3 |
| 20260510053032 | 67 | 250 | 0.0 | 2.6 | 0.00 | 0.01 | 0.00 | 59 | 1031.3 |
| 20260510052531 | 67 | 236 | 0.0 | 2.6 | 0.00 | 0.01 | 0.00 | 59 | 1031.3 |
| 20260510052033 | 67 | 237 | 0.9 | 2.6 | 0.00 | 0.01 | 0.00 | 58 | 1031.3 |
| 20260510051529 | 67 | 257 | 0.9 | 2.6 | 0.00 | 0.01 | 0.00 | 58 | 1031.3 |
| 20260510051028 | 68 | 272 | 0.0 | 2.6 | 0.00 | 0.01 | 0.00 | 57 | 1031.3 |
| 20260510050527 | 68 | 264 | 0.9 | 2.6 | 0.00 | 0.01 | 0.00 | 57 | 1031.3 |
| 20260510050027 | 68 | 249 | 0.0 | 1.7 | 0.00 | 0.01 | 0.00 | 56 | 1031.3 |
| 20260510045526 | 68 | 218 | 0.0 | 1.7 | 0.00 | 0.01 | 0.01 | 56 | 1031.3 |
| 20260510045026 | 69 | 210 | 0.9 | 1.7 | 0.00 | 0.01 | 0.01 | 56 | 1031.3 |
| 20260510044526 | 69 | 137 | 0.0 | 1.7 | 0.00 | 0.01 | 0.01 | 55 | 1031.3 |
| 20260510044025 | 69 | 63 | 0.0 | 2.6 | 0.00 | 0.01 | 0.01 | 55 | 1031.3 |
| 20260510043526 | 69 | 30 | 0.9 | 2.6 | 0.00 | 0.01 | 0.01 | 55 | 1031.3 |
| 20260510043026 | 69 | 16 | 0.9 | 3.5 | 0.00 | 0.01 | 0.01 | 54 | 1031.3 |
| 20260510042526 | 69 | 20 | 0.9 | 3.5 | 0.00 | 0.01 | 0.01 | 54 | 1031.3 |
| 20260510042028 | 69 | 24 | 0.0 | 1.7 | 0.00 | 0.01 | 0.01 | 54 | 1031.3 |
| 20260510041533 | 69 | 4 | 0.9 | 3.5 | 0.00 | 0.01 | 0.01 | 54 | 1031.3 |
| 20260510041029 | 69 | 31 | 0.9 | 5.2 | 0.00 | 0.01 | 0.01 | 54 | 1031.3 |
| 20260510040525 | 69 | 21 | 3.5 | 5.2 | 0.00 | 0.01 | 0.01 | 54 | 1031.3 |
| 20260510040024 | 68 | 73 | 2.6 | 7.8 | 0.00 | 0.01 | 0.01 | 55 | 1031.3 |
| 20260510035524 | 68 | 44 | 2.6 | 10.4 | 0.00 | 0.24 | 0.01 | 55 | 1031.3 |
| 20260510035026 | 68 | 9 | 3.5 | 16.5 | 0.00 | 0.24 | 0.01 | 55 | 1031.3 |
| 20260510034528 | 66 | 54 | 9.6 | 16.5 | 0.00 | 0.24 | 0.01 | 62 | 1031.3 |
| 20260510034024 | 70 | 51 | 0.0 | 2.6 | 0.00 | 0.24 | 0.01 | 62 | 1031.3 |
| 20260510033526 | 70 | 242 | 0.0 | 2.6 | 0.00 | 0.24 | 0.01 | 48 | 1031.3 |
| 20260510033024 | 70 | 296 | 0.9 | 3.5 | 0.00 | 0.24 | 0.01 | 48 | 1031.3 |
| 20260510032523 | 70 | 264 | 0.0 | 2.6 | 0.00 | 0.24 | 0.01 | 48 | 1031.3 |
| 20260510032026 | 70 | 244 | 0.0 | 2.6 | 0.00 | 0.24 | 0.01 | 49 | 1031.3 |
| 20260510031524 | 70 | 205 | 0.0 | 3.5 | 0.00 | 0.24 | 0.01 | 49 | 1031.3 |
| 20260510031023 | 71 | 283 | 0.9 | 3.5 | 0.00 | 0.24 | 0.01 | 47 | 1031.3 |
| 20260510030523 | 71 | 266 | 0.9 | 4.3 | 0.00 | 0.24 | 0.01 | 47 | 1031.3 |
| 20260510030027 | 70 | 277 | 0.9 | 4.3 | 0.00 | 0.24 | 0.01 | 48 | 1031.3 |
| 20260510025523 | 71 | 278 | 0.9 | 2.6 | 0.00 | 0.43 | 0.01 | 47 | 1031.3 |
| 20260510025023 | 71 | 293 | 0.0 | 2.6 | 0.00 | 0.43 | 0.01 | 48 | 1031.3 |
| 20260510024532 | 71 | 295 | 0.0 | 4.3 | 0.00 | 0.43 | 0.01 | 47 | 1031.3 |
| 20260510024022 | 71 | 295 | 0.9 | 3.5 | 0.00 | 0.43 | 0.01 | 46 | 1031.3 |
| 20260510023522 | 71 | 275 | 0.0 | 2.6 | 0.00 | 0.43 | 0.01 | 46 | 1031.3 |
| 20260510023022 | 71 | 226 | 0.0 | 3.5 | 0.00 | 0.43 | 0.01 | 45 | 1031.3 |
| 20260510022522 | 72 | 275 | 0.9 | 3.5 | 0.00 | 0.43 | 0.01 | 45 | 1031.3 |
| 20260510022023 | 72 | 281 | 0.9 | 4.3 | 0.00 | 0.43 | 0.01 | 45 | 1031.3 |
| 20260510021529 | 72 | 295 | 0.9 | 4.3 | 0.00 | 0.43 | 0.01 | 45 | 1031.3 |
| 20260510021021 | 72 | 260 | 0.9 | 4.3 | 0.00 | 0.43 | 0.01 | 45 | 1031.3 |
| 20260510020522 | 72 | 276 | 1.7 | 5.2 | 0.00 | 0.43 | 0.01 | 45 | 1031.3 |
| 20260510020021 | 72 | 285 | 0.9 | 5.2 | 0.00 | 0.43 | 0.01 | 45 | 1031.3 |
| 20260510015521 | 72 | 292 | 1.7 | 4.3 | 0.00 | 0.44 | 0.01 | 45 | 1031.3 |
| 20260510015023 | 73 | 281 | 1.7 | 5.2 | 0.00 | 0.44 | 0.01 | 45 | 1031.3 |
| 20260510014521 | 73 | 275 | 1.7 | 5.2 | 0.00 | 0.44 | 0.01 | 44 | 1031.3 |
| 20260510014021 | 74 | 282 | 1.7 | 5.2 | 0.00 | 0.44 | 0.01 | 44 | 1031.3 |
| 20260510013521 | 74 | 289 | 1.7 | 5.2 | 0.00 | 0.44 | 0.01 | 43 | 1031.3 |
| 20260510013020 | 74 | 281 | 1.7 | 4.3 | 0.00 | 0.44 | 0.01 | 42 | 1031.3 |
| 20260510012521 | 74 | 273 | 1.7 | 4.3 | 0.00 | 0.44 | 0.01 | 42 | 1031.3 |
| 20260510012020 | 75 | 283 | 1.7 | 5.2 | 0.00 | 0.44 | 0.01 | 41 | 1031.3 |
| 20260510011521 | 75 | 289 | 1.7 | 5.2 | 0.00 | 0.44 | 0.01 | 41 | 1031.3 |
| 20260510011020 | 75 | 285 | 1.7 | 4.3 | 0.00 | 0.44 | 0.01 | 41 | 1031.3 |
| 20260510010520 | 75 | 297 | 1.7 | 4.3 | 0.00 | 0.44 | 0.01 | 40 | 1031.3 |
| 20260510010019 | 76 | 285 | 1.7 | 3.5 | 0.00 | 0.44 | 0.01 | 40 | 1031.3 |
| 20260510005519 | 76 | 307 | 0.0 | 3.5 | 0.00 | 0.44 | 0.01 | 39 | 1031.3 |
| 20260510005021 | 76 | 303 | 0.9 | 3.5 | 0.00 | 0.44 | 0.01 | 40 | 1031.3 |
| 20260510004519 | 76 | 288 | 0.9 | 3.5 | 0.00 | 0.44 | 0.01 | 39 | 1031.3 |
| 20260510004019 | 77 | 293 | 0.9 | 3.5 | 0.00 | 0.44 | 0.01 | 39 | 1031.3 |
| 20260510003519 | 77 | 273 | 1.7 | 3.5 | 0.00 | 0.44 | 0.01 | 38 | 1031.3 |
| 20260510003026 | 77 | 294 | 1.7 | 3.5 | 0.00 | 0.44 | 0.01 | 38 | 1031.3 |
| 20260510002518 | 78 | 288 | 1.7 | 3.5 | 0.00 | 0.44 | 0.01 | 39 | 1031.3 |
| 20260510002019 | 78 | 296 | 0.9 | 3.5 | 0.00 | 0.44 | 0.01 | 38 | 1031.3 |
| 20260510001520 | 78 | 274 | 1.7 | 3.5 | 0.00 | 0.44 | 0.01 | 38 | 1031.3 |
| 20260510001020 | 78 | 309 | 1.7 | 3.5 | 0.00 | 0.44 | 0.01 | 38 | 1031.3 |
| 20260510000520 | 79 | 285 | 2.6 | 5.2 | 0.00 | 0.44 | 0.01 | 37 | 1031.3 |
| 20260510000018 | 79 | 300 | 1.7 | 5.2 | 0.00 | 0.44 | 0.01 | 37 | 1031.3 |
| 20260509235518 | 79 | 316 | 2.6 | 5.2 | 0.00 | 0.44 | 0.01 | 37 | 1031.3 |
| 20260509235018 | 79 | 295 | 1.7 | 5.2 | 0.00 | 0.44 | 0.01 | 37 | 1031.3 |
| 20260509234531 | 80 | 300 | 1.7 | 6.1 | 0.00 | 0.44 | 0.01 | 35 | 1031.3 |
| 20260509234020 | 80 | 298 | 0.9 | 4.3 | 0.00 | 0.44 | 0.01 | 36 | 1031.3 |
| 20260509233517 | 80 | 310 | 1.7 | 3.5 | 0.00 | 0.44 | 0.01 | 34 | 1031.3 |
| 20260509233017 | 81 | 343 | 0.0 | 3.5 | 0.00 | 0.44 | 0.01 | 36 | 1031.3 |
| 20260509232518 | 80 | 342 | 0.9 | 5.2 | 0.00 | 0.44 | 0.01 | 34 | 1031.3 |
| 20260509232018 | 80 | 355 | 2.6 | 6.1 | 0.00 | 0.44 | 0.01 | 31 | 1031.3 |
| 20260509231516 | 80 | 339 | 1.7 | 6.1 | 0.00 | 0.44 | 0.01 | 33 | 1031.3 |
| 20260509231016 | 81 | 332 | 1.7 | 6.1 | 0.00 | 0.44 | 0.01 | 34 | 1031.3 |
| 20260509230516 | 80 | 360 | 1.7 | 6.1 | 0.00 | 0.44 | 0.01 | 32 | 1031.3 |
| 20260509230016 | 81 | 20 | 2.6 | 6.1 | 0.00 | 0.44 | 0.01 | 33 | 1031.3 |
| 20260509225515 | 81 | 300 | 1.7 | 6.1 | 0.00 | 0.44 | 0.01 | 33 | 1031.3 |
| 20260509225015 | 81 | 351 | 0.9 | 6.1 | 0.00 | 0.44 | 0.01 | 35 | 1031.3 |
| 20260509224515 | 81 | 353 | 1.7 | 7.0 | 0.00 | 0.44 | 0.01 | 34 | 1031.3 |
| 20260509224015 | 80 | 348 | 3.5 | 9.6 | 0.00 | 0.44 | 0.01 | 32 | 1031.3 |
| 20260509223517 | 81 | 330 | 4.3 | 9.6 | 0.00 | 0.44 | 0.01 | 33 | 1031.3 |
| 20260509223016 | 81 | 329 | 2.6 | 7.8 | 0.00 | 0.44 | 0.01 | 37 | 1031.3 |
| 20260509222515 | 81 | 7 | 1.7 | 6.1 | 0.00 | 0.44 | 0.01 | 34 | 1031.3 |
| 20260509222013 | 81 | 48 | 0.9 | 7.0 | 0.00 | 0.44 | 0.01 | 37 | 1031.3 |
| 20260509221514 | 81 | 360 | 0.0 | 9.6 | 0.00 | 0.44 | 0.01 | 37 | 1031.3 |
| 20260509221013 | 80 | 345 | 5.2 | 9.6 | 0.00 | 0.44 | 0.01 | 34 | 1031.3 |
| 20260509220512 | 81 | 343 | 3.5 | 7.8 | 0.00 | 0.44 | 0.01 | 34 | 1031.3 |
| 20260509220014 | 80 | 357 | 2.6 | 9.6 | 0.00 | 0.44 | 0.01 | 34 | 1031.3 |
| 20260509215516 | 80 | 333 | 2.6 | 8.7 | 0.00 | 0.44 | 0.01 | 33 | 1031.3 |
| 20260509215011 | 81 | 39 | 2.6 | 8.7 | 0.00 | 0.44 | 0.01 | 33 | 1031.3 |
| 20260509214512 | 80 | 352 | 3.5 | 8.7 | 0.00 | 0.44 | 0.01 | 32 | 1031.3 |
| 20260509214017 | 80 | 326 | 4.3 | 8.7 | 0.00 | 0.44 | 0.01 | 32 | 1031.3 |
| 20260509213513 | 80 | 6 | 2.6 | 9.6 | 0.00 | 0.44 | 0.01 | 34 | 1031.3 |
| 20260509213012 | 80 | 297 | 6.1 | 9.6 | 0.00 | 0.44 | 0.01 | 34 | 1031.3 |
| 20260509212513 | 81 | 282 | 4.3 | 8.7 | 0.00 | 0.44 | 0.01 | 33 | 1031.3 |
| 20260509212011 | 81 | 306 | 0.9 | 8.7 | 0.00 | 0.44 | 0.01 | 39 | 1031.3 |
| 20260509211511 | 80 | 360 | 4.3 | 8.7 | 0.00 | 0.44 | 0.01 | 34 | 1031.3 |
| 20260509211011 | 80 | 332 | 2.6 | 7.0 | 0.00 | 0.44 | 0.01 | 37 | 1031.3 |
| 20260509210510 | 80 | 326 | 3.5 | 7.8 | 0.00 | 0.44 | 0.01 | 35 | 1031.3 |
| 20260509210009 | 80 | 313 | 1.7 | 11.3 | 0.00 | 0.44 | 0.01 | 39 | 1031.3 |
| 20260509205508 | 80 | 360 | 3.5 | 11.3 | 0.00 | 0.44 | 0.01 | 36 | 1031.3 |